Location: La Bastide
(43.1661°N, 1.2755°E)
Time: 03:12:14
(UTC+00:00)

Tiangong - Pass Details

Date: 20 February 2026
Orbit: 382 x 391 km, 41.5° (Epoch: 6 March)

Event Time Altitude Azimuth Distance (km) Brightness Sun altitude
Rises 18:27:16 0° 275° (W) 2,259 3.8 -10.7°
Reaches altitude 10° 18:29:28 10° 264° (W) 1,402 2.3 -11.1°
Maximum altitude 18:32:19 31° 200° (SSW) 692 -0.6 -11.6°
Enters shadow 18:35:02 11° 136° (SE) 1,347 0.2 -12.1°
